SCP
0 0 0 0 0 0 0 0 0 0 0 0 0 0 0 0 0 0 0 0 0 0 0 0 0 0 0 0 0 0 0 0 0 0 0 0 0 0 0 0 0 0 0
0 0 0 0 0 0 0 0 0 0 0 0 0 0 0 0 0 0 0 0 0 0 0 0 0 0 0 0 0 0 0 0 0 0 0 0 0 0 0 0 0 0 0
0 0 0 0 0 0 0 0 0 0 0 0 0 0 0 0 0 0 0 0 0 0 0 0 0 0 0 0 0 0 0 0 0 0 0 0 0 0 0 0 0 0 0
0 0 0 0 0 0 0 0 0 0 0 0 0 0 0 0 0 0 0 0 0 0 0 0 0 0 0 0 0 0 0 0 0 0 0 0 0 0 0 0 0 0 0
0 0 0 0 0 0 0 0 0 0 0 0 0 0 0 0 0 0 0 0 0 0 0 0 0 0 0 0 0 0 0 0 0 0 0 0 0 0 0 0 0 0 0
0 0 0 0 0 0 0 0 0 0 0 0 0 0 0 0 0 0 0 0 0 0 0 0 0 0 0 0 0 0 0 0 0 0 0 0 0 0 0 0 0 0 0
0 0 0 0 0 0 0 0 0 0 0 0 0 0 0 0 0 0 0 0 0 0 0 0 0 0 0 0 0 0 0 0 0 0 0 0 0 0 0 0 0 0 0
0 0 0 0 0 0 0 0 0 0 0 0 0 0 0 0 0 0 0 0 0 0 0 0 0 0 0 0 0 0 0 0 0 0 0 0 0 0 0 0 0 0 0
0 0 0 0 0 0 0 0 0 0 0 0 0 0 0 0 0 0 0 0 0 0 0 0 0 0 0 0 0 0 0 0 0 0 0 0 0 0 0 0 0 0 0
0 0 0 0 0 0 0 0 0 0 0 0 0 0 0 0 0 0 0 0 0 0 0 0 0 0 0 0 0 0 0 0 0 0 0 0 0 0 0 0 0 0 0
0 0 0 0 0 0 0 0 0 0 0 0 0 0 0 0 0 0 0 0 0 0 0 0 0 0 0 0 0 0 0 0 0 0 0 0 0 0 0 0 0 0 0
0 0 0 0 0 0 0 0 0 0 0 0 0 0 0 0 0 0 0 0 0 0 0 0 0 0 0 0 0 0 0 0 0 0 0 0 0 0 0 0 0 0 0
0 0 0 0 0 0 0 0 0 0 0 0 0 0 0 0 0 0 0 0 0 0 0 0 0 0 0 0 0 0 0 0 0 0 0 0 0 0 0 0 0 0 0
0 0 0 0 0 0 0 0 0 0 0 0 0 0 0 0 0 0 0 0 0 0 0 0 0 0 0 0 0 0 0 0 0 0 0 0 0 0 0 0 0 0 0
0 0 0 0 0 0 0 0 0 0 0 0 0 0 0 0 0 0 0 0 0 0 0 0 0 0 0 0 0 0 0 0 0 0 0 0 0 0 0 0 0 0 0
0 0 0 0 0 0 0 0 0 0 0 0 0 0 0 0 0 0 0 0 0 0 0 0 0 0 0 0 0 0 0 0 0 0 0 0 0 0 0 0 0 0 0
0 0 0 0 0 0 0 0 0 0 0 0 0 0 0 0 0 0 0 0 0 0 0 0 0 0 0 0 0 0 0 0 0 0 0 0 0 0 0 0 0 0 0
0 0 0 0 0 0 0 0 0 0 0 0 0 0 0 0 0 0 0 0 0 0 0 0 0 0 0 0 0 0 0 0 0 0 0 0 0 0 0 0 0 0 0
0 0 0 0 0 0 0 0 0 0 0 0 0 0 0 0 0 0 0 0 0 0 0 0 0 0 0 0 0 0 0 0 0 -0 0 0 0 0 0 0 0 0 0
0 0 0 0 0 0 0 0 0 0 0 0 0 0 0 0 0 0 0 0 0 0 0 0 0 0 0 0 0 0 0 0 0 0 0 0 0 0 0 0 0 0 0
0 0 0 0 0 0 0 0 0 0 0 0 0 0 0 0 0 0 0 0 0 0 0 0 0 0 0 0 0 0 0 -0 -0 0 0 0 0 0 0 0 0 0 0
0 0 0 0 0 0 0 0 0 0 0 0 0 0 0 0 0 0 0 0 0 0 0 0 0 0 0 0 0 0 0 -0 0 0 0 0 0 0 0 0 0 0 0
0 0 0 0 0 0 0 0 0 0 0 0 0 0 0 0 0 0 0 0 0 0 0 0 0 0 0 0 0 0 -0 0 0 0 0 0 0 0 0 0 0 0 0
0 0 0 0 0 0 0 0 0 0 0 0 0 0 0 0 0 0 0 0 0 0 0 0 0 0 0 0 0 0 0 0 0 0 0 0 0 0 0 0 0 0 0
0 0 0 0 0 0 0 0 0 0 0 0 0 0 0 0 0 0 0 0 0 0 0 0 0 0 0 0 0 0 0 0 0 0 0 0 0 0 0 0 0 0 0
0 0 0 0 0 0 0 0 0 0 0 0 0 0 0 0 0 0 0 0 0 0 0 0 0 0 0 0 0 0 0 0 0 0 0 0 0 0 0 0 0 0 0
Wind_Speed_500mb
42 46 51 50 45 43 37 29 35 34 32 28 24 22 20 17 16 21 24 26 23 24 23 23 24 25 26 29 35 39 44 45 48 58 64 61 56 40 41 84 48 68 52
42 55 56 54 53 49 45 37 34 31 29 26 24 23 22 21 23 25 22 23 23 21 18 19 21 23 26 29 33 38 46 49 48 47 47 34 52 31 85 44 77 57 52
48 53 58 61 58 55 50 44 37 32 32 26 26 30 23 22 24 21 23 23 18 15 16 17 21 24 27 31 36 40 44 50 52 49 32 28 27 86 33 80 38 36 50
49 53 59 59 57 54 53 48 39 34 33 31 32 30 25 25 25 22 21 15 12 13 14 17 21 25 30 34 38 43 47 51 54 53 35 36 47 40 78 77 48 67 58
62 62 60 56 53 50 50 47 42 41 37 37 34 28 27 28 21 18 13 11 10 10 13 18 23 28 33 38 43 48 51 54 57 57 59 56 45 45 51 90 116 108 71
57 58 59 56 54 54 51 48 45 41 39 31 26 23 22 19 18 15 12 7 5 9 15 21 28 34 40 44 48 52 56 60 64 67 67 62 49 54 55 67 88 94 128
60 61 64 62 59 59 55 50 44 41 34 27 24 22 20 18 16 12 8 4 6 12 20 27 33 39 44 49 54 59 63 66 70 71 70 67 61 55 56 62 77 82 104
52 61 62 61 61 58 54 48 42 37 33 28 24 21 19 16 13 10 7 7 12 19 26 33 39 44 49 54 58 63 68 73 76 76 73 71 67 54 52 56 61 76 80
55 63 62 61 59 56 49 44 43 38 32 27 23 19 16 15 13 9 8 12 18 24 32 39 45 48 52 59 66 72 76 79 80 78 74 68 64 56 52 52 51 56 70
47 56 61 62 59 52 50 46 39 34 29 26 22 20 18 16 11 9 11 16 24 31 39 46 49 53 58 65 72 78 80 80 77 73 70 68 62 58 51 49 49 51 62
47 56 61 61 56 57 55 51 48 39 32 27 24 23 19 14 11 10 15 21 29 38 46 50 53 58 65 71 77 77 76 74 72 69 67 64 59 52 52 50 49 52 54
48 55 61 64 65 63 59 52 45 38 32 28 26 20 16 14 12 15 19 26 34 43 48 52 57 64 71 74 75 74 72 70 67 64 61 58 53 51 49 50 57 57 54
37 48 60 65 68 65 61 54 46 39 32 28 23 22 18 15 17 19 23 31 39 45 48 54 62 69 71 72 72 71 68 63 61 59 54 53 52 51 55 52 51 54 52
44 56 66 71 68 68 60 53 48 41 35 29 26 23 19 20 21 24 29 36 44 47 50 57 63 66 68 68 68 66 62 57 55 52 49 49 47 51 53 51 53 53 56
49 61 71 77 75 69 63 56 48 44 38 32 26 23 21 22 24 27 32 40 44 48 53 58 61 63 64 64 64 59 57 57 52 47 47 46 50 49 51 49 49 54 56
65 72 77 78 77 73 67 59 52 47 40 34 29 25 23 25 25 29 35 41 44 48 54 57 57 57 57 58 57 56 60 55 48 50 47 48 48 49 47 45 46 48 58
61 78 83 84 81 77 70 61 53 47 42 37 32 29 27 23 25 30 37 40 43 48 50 51 51 51 52 54 54 54 55 52 47 47 48 50 49 48 57 64 55 56 47
54 68 83 84 83 76 69 60 52 46 42 40 36 30 25 22 25 32 35 38 43 44 44 44 45 46 49 50 50 52 52 53 49 49 45 50 53 52 63 55 59 62 49
51 47 61 79 87 83 74 64 55 48 44 41 36 27 22 21 25 29 32 37 38 37 37 38 39 42 46 45 49 53 55 57 51 44 42 47 50 53 50 56 54 51 50
48 39 38 51 70 81 74 65 59 51 45 41 31 25 19 20 24 27 31 32 31 30 31 33 35 39 41 42 47 50 52 54 48 44 43 45 49 51 49 49 49 49 52
25 31 30 35 43 56 74 69 60 52 44 36 30 21 16 20 21 23 26 25 23 25 29 31 33 35 38 41 46 49 51 49 47 47 49 49 49 49 49 48 49 47 46
24 24 26 32 37 50 70 67 60 52 43 35 24 16 16 17 17 19 18 17 17 23 26 31 33 37 39 43 45 47 49 47 47 49 47 45 44 43 44 46 46 44 44
29 29 32 39 45 58 66 66 59 49 39 28 18 15 13 11 13 12 11 11 17 23 28 32 35 37 40 43 45 47 44 43 43 41 39 38 41 42 45 47 47 48 51
24 31 38 49 60 64 61 52 48 41 30 21 16 13 10 9 7 5 6 13 16 23 27 30 33 34 39 44 47 46 44 42 40 37 37 38 39 43 46 49 50 50 49
21 29 39 51 58 60 55 47 40 32 25 19 16 13 8 5 1 4 9 13 19 23 25 28 30 33 37 40 40 41 43 41 41 37 38 43 49 53 55 55 55 55 54
22 37 45 49 52 54 51 45 36 28 22 19 18 13 9 5 5 7 10 17 22 22 22 25 27 29 31 31 32 34 35 36 36 37 46 53 56 58 58 58 58 58 58
Wind_Direction_500mb
210 212 215 215 218 221 223 239 226 227 230 236 238 251 257 260 273 285 285 292 313 319 324 329 335 341 341 340 340 340 339 341 339 340 334 337 333 320 315 323 310 319 321
213 214 215 219 221 225 227 231 224 226 232 232 238 250 250 260 269 264 279 299 305 314 327 334 334 340 344 343 342 342 341 342 342 337 336 328 330 325 316 315 317 312 313
213 214 214 217 219 223 228 225 223 228 228 232 249 253 241 240 252 268 278 291 305 320 329 335 343 347 347 346 345 340 340 337 335 334 325 327 310 319 328 314 311 301 306
212 215 213 211 212 219 218 216 217 227 236 244 247 248 239 238 248 263 270 278 297 317 332 346 349 346 343 338 336 335 333 331 327 327 323 304 301 311 316 311 302 305 303
216 211 210 209 208 207 208 211 220 229 235 244 245 239 236 242 248 249 247 269 297 326 349 346 339 333 330 330 330 329 327 327 325 324 319 311 303 292 285 295 308 308 305
214 209 205 203 202 204 205 211 217 226 235 235 229 226 228 229 225 221 238 258 305 339 336 331 328 329 329 326 324 324 326 326 322 321 317 309 298 293 289 286 292 297 307
209 204 202 199 200 205 205 209 217 227 227 211 209 210 207 204 208 219 207 224 304 320 322 327 329 326 323 324 325 326 326 324 321 319 314 308 300 293 288 286 285 291 298
201 201 199 200 201 203 204 208 214 212 199 200 202 198 199 204 200 192 205 268 306 319 326 326 323 324 325 325 325 326 324 321 319 316 314 309 304 297 292 288 291 294 294
201 202 199 200 199 198 198 202 195 193 198 199 195 198 200 189 191 206 254 299 315 320 320 322 324 324 324 324 324 324 323 321 321 318 315 312 308 302 297 291 288 287 291
196 195 196 195 196 193 191 183 191 199 198 195 197 192 190 193 209 246 290 307 313 316 320 324 324 322 323 323 323 322 323 322 320 318 316 315 312 308 304 301 297 291 287
191 193 195 196 192 187 181 190 194 194 193 193 193 194 194 207 232 270 292 306 314 320 323 322 321 322 323 324 324 324 324 322 320 320 318 317 316 313 311 308 304 300 295
193 194 194 191 186 186 187 190 191 189 191 192 194 194 212 227 253 277 297 311 319 321 321 320 322 324 325 326 327 325 324 323 324 324 322 321 320 318 314 307 307 306 307
185 188 191 188 188 189 192 191 189 188 192 195 197 213 223 241 263 283 304 313 317 318 319 324 326 326 328 328 326 325 326 327 327 327 325 324 325 323 320 320 318 319 317
192 193 192 191 193 196 194 192 190 193 196 196 208 216 229 251 272 290 306 315 316 319 324 326 327 328 328 328 329 330 330 330 330 330 328 327 327 326 327 326 323 325 327
198 199 196 196 199 198 197 196 197 201 200 204 208 217 238 260 276 296 310 315 317 323 325 328 331 330 332 335 335 336 334 337 334 332 332 332 331 335 331 324 321 324 328
207 206 205 204 203 202 200 199 200 205 205 210 214 228 249 265 285 302 310 313 319 325 329 331 333 336 340 343 343 342 344 345 339 336 334 333 338 336 341 333 331 326 322
221 213 212 212 210 206 203 201 202 204 210 213 221 236 252 271 290 303 310 315 323 329 332 336 342 347 351 352 353 357 359 353 346 341 338 339 342 345 348 346 336 341 334
247 230 222 219 217 214 209 205 203 206 211 215 224 236 252 272 294 305 311 321 328 335 341 346 353 358 1 3 6 4 4 1 359 356 350 352 356 353 350 341 337 336 344
258 255 242 230 223 217 211 206 202 206 209 216 223 235 252 276 296 308 317 327 333 342 351 359 4 7 13 10 12 6 6 9 6 6 3 2 355 350 345 341 346 352 347
237 240 239 231 229 222 213 205 205 206 210 214 221 235 254 283 301 314 325 331 342 356 6 12 14 22 24 19 17 9 12 16 12 10 7 1 355 351 358 358 359 356 353
216 213 212 216 220 216 208 203 203 206 207 210 219 230 261 289 306 317 329 340 354 14 22 26 34 33 29 27 24 18 18 13 12 12 10 7 4 1 0 4 7 5 4
172 184 191 192 194 197 197 196 198 200 201 206 213 237 269 291 310 323 338 358 18 31 40 47 47 45 41 38 32 28 26 20 17 17 14 9 7 10 11 15 15 13 15
154 163 175 180 177 179 187 191 192 194 196 199 216 245 268 292 310 332 358 27 42 47 55 56 51 45 39 36 34 31 26 21 20 19 16 12 11 15 18 19 16 15 17
165 164 167 167 165 174 180 190 186 187 190 202 221 241 256 288 316 344 48 59 55 63 63 59 51 40 34 30 29 26 23 23 22 17 18 20 23 23 20 18 18 19 19
167 166 168 167 168 170 173 178 184 186 192 201 220 225 238 262 246 105 86 77 76 72 65 59 49 42 35 28 21 17 16 16 15 10 11 14 16 18 19 19 19 19 18
173 170 174 176 174 174 178 179 182 189 195 205 209 214 215 198 177 145 115 100 94 81 65 60 51 45 39 26 20 17 13 9 11 7 22 25 24 23 20 18 19 20 21
Wind_Speed_850mb
42 46 51 50 45 43 37 29 35 34 32 28 24 22 20 17 16 21 24 26 23 24 23 23 24 25 26 29 35 39 44 45 48 58 64 61 56 40 41 84 48 68 52
42 55 56 54 53 49 45 37 34 31 29 26 24 23 22 21 23 25 22 23 23 21 18 19 21 23 26 29 33 38 46 49 48 47 47 34 52 31 85 44 77 57 52
48 53 58 61 58 55 50 44 37 32 32 26 26 30 23 22 24 21 23 23 18 15 16 17 21 24 27 31 36 40 44 50 52 49 32 28 27 86 33 80 38 36 50
49 53 59 59 57 54 53 48 39 34 33 31 32 30 25 25 25 22 21 15 12 13 14 17 21 25 30 34 38 43 47 51 54 53 35 36 47 40 78 77 48 67 58
62 62 60 56 53 50 50 47 42 41 37 37 34 28 27 28 21 18 13 11 10 10 13 18 23 28 33 38 43 48 51 54 57 57 59 56 45 45 51 90 116 108 71
57 58 59 56 54 54 51 48 45 41 39 31 26 23 22 19 18 15 12 7 5 9 15 21 28 34 40 44 48 52 56 60 64 67 67 62 49 54 55 67 88 94 128
60 61 64 62 59 59 55 50 44 41 34 27 24 22 20 18 16 12 8 4 6 12 20 27 33 39 44 49 54 59 63 66 70 71 70 67 61 55 56 62 77 82 104
52 61 62 61 61 58 54 48 42 37 33 28 24 21 19 16 13 10 7 7 12 19 26 33 39 44 49 54 58 63 68 73 76 76 73 71 67 54 52 56 61 76 80
55 63 62 61 59 56 49 44 43 38 32 27 23 19 16 15 13 9 8 12 18 24 32 39 45 48 52 59 66 72 76 79 80 78 74 68 64 56 52 52 51 56 70
47 56 61 62 59 52 50 46 39 34 29 26 22 20 18 16 11 9 11 16 24 31 39 46 49 53 58 65 72 78 80 80 77 73 70 68 62 58 51 49 49 51 62
47 56 61 61 56 57 55 51 48 39 32 27 24 23 19 14 11 10 15 21 29 38 46 50 53 58 65 71 77 77 76 74 72 69 67 64 59 52 52 50 49 52 54
48 55 61 64 65 63 59 52 45 38 32 28 26 20 16 14 12 15 19 26 34 43 48 52 57 64 71 74 75 74 72 70 67 64 61 58 53 51 49 50 57 57 54
37 48 60 65 68 65 61 54 46 39 32 28 23 22 18 15 17 19 23 31 39 45 48 54 62 69 71 72 72 71 68 63 61 59 54 53 52 51 55 52 51 54 52
44 56 66 71 68 68 60 53 48 41 35 29 26 23 19 20 21 24 29 36 44 47 50 57 63 66 68 68 68 66 62 57 55 52 49 49 47 51 53 51 53 53 56
49 61 71 77 75 69 63 56 48 44 38 32 26 23 21 22 24 27 32 40 44 48 53 58 61 63 64 64 64 59 57 57 52 47 47 46 50 49 51 49 49 54 56
65 72 77 78 77 73 67 59 52 47 40 34 29 25 23 25 25 29 35 41 44 48 54 57 57 57 57 58 57 56 60 55 48 50 47 48 48 49 47 45 46 48 58
61 78 83 84 81 77 70 61 53 47 42 37 32 29 27 23 25 30 37 40 43 48 50 51 51 51 52 54 54 54 55 52 47 47 48 50 49 48 57 64 55 56 47
54 68 83 84 83 76 69 60 52 46 42 40 36 30 25 22 25 32 35 38 43 44 44 44 45 46 49 50 50 52 52 53 49 49 45 50 53 52 63 55 59 62 49
51 47 61 79 87 83 74 64 55 48 44 41 36 27 22 21 25 29 32 37 38 37 37 38 39 42 46 45 49 53 55 57 51 44 42 47 50 53 50 56 54 51 50
48 39 38 51 70 81 74 65 59 51 45 41 31 25 19 20 24 27 31 32 31 30 31 33 35 39 41 42 47 50 52 54 48 44 43 45 49 51 49 49 49 49 52
25 31 30 35 43 56 74 69 60 52 44 36 30 21 16 20 21 23 26 25 23 25 29 31 33 35 38 41 46 49 51 49 47 47 49 49 49 49 49 48 49 47 46
24 24 26 32 37 50 70 67 60 52 43 35 24 16 16 17 17 19 18 17 17 23 26 31 33 37 39 43 45 47 49 47 47 49 47 45 44 43 44 46 46 44 44
29 29 32 39 45 58 66 66 59 49 39 28 18 15 13 11 13 12 11 11 17 23 28 32 35 37 40 43 45 47 44 43 43 41 39 38 41 42 45 47 47 48 51
24 31 38 49 60 64 61 52 48 41 30 21 16 13 10 9 7 5 6 13 16 23 27 30 33 34 39 44 47 46 44 42 40 37 37 38 39 43 46 49 50 50 49
21 29 39 51 58 60 55 47 40 32 25 19 16 13 8 5 1 4 9 13 19 23 25 28 30 33 37 40 40 41 43 41 41 37 38 43 49 53 55 55 55 55 54
22 37 45 49 52 54 51 45 36 28 22 19 18 13 9 5 5 7 10 17 22 22 22 25 27 29 31 31 32 34 35 36 36 37 46 53 56 58 58 58 58 58 58
Wind_Direction_850mb
210 212 215 215 218 221 223 239 226 227 230 236 238 251 257 260 273 285 285 292 313 319 324 329 335 341 341 340 340 340 339 341 339 340 334 337 333 320 315 323 310 319 321
213 214 215 219 221 225 227 231 224 226 232 232 238 250 250 260 269 264 279 299 305 314 327 334 334 340 344 343 342 342 341 342 342 337 336 328 330 325 316 315 317 312 313
213 214 214 217 219 223 228 225 223 228 228 232 249 253 241 240 252 268 278 291 305 320 329 335 343 347 347 346 345 340 340 337 335 334 325 327 310 319 328 314 311 301 306
212 215 213 211 212 219 218 216 217 227 236 244 247 248 239 238 248 263 270 278 297 317 332 346 349 346 343 338 336 335 333 331 327 327 323 304 301 311 316 311 302 305 303
216 211 210 209 208 207 208 211 220 229 235 244 245 239 236 242 248 249 247 269 297 326 349 346 339 333 330 330 330 329 327 327 325 324 319 311 303 292 285 295 308 308 305
214 209 205 203 202 204 205 211 217 226 235 235 229 226 228 229 225 221 238 258 305 339 336 331 328 329 329 326 324 324 326 326 322 321 317 309 298 293 289 286 292 297 307
209 204 202 199 200 205 205 209 217 227 227 211 209 210 207 204 208 219 207 224 304 320 322 327 329 326 323 324 325 326 326 324 321 319 314 308 300 293 288 286 285 291 298
201 201 199 200 201 203 204 208 214 212 199 200 202 198 199 204 200 192 205 268 306 319 326 326 323 324 325 325 325 326 324 321 319 316 314 309 304 297 292 288 291 294 294
201 202 199 200 199 198 198 202 195 193 198 199 195 198 200 189 191 206 254 299 315 320 320 322 324 324 324 324 324 324 323 321 321 318 315 312 308 302 297 291 288 287 291
196 195 196 195 196 193 191 183 191 199 198 195 197 192 190 193 209 246 290 307 313 316 320 324 324 322 323 323 323 322 323 322 320 318 316 315 312 308 304 301 297 291 287
191 193 195 196 192 187 181 190 194 194 193 193 193 194 194 207 232 270 292 306 314 320 323 322 321 322 323 324 324 324 324 322 320 320 318 317 316 313 311 308 304 300 295
193 194 194 191 186 186 187 190 191 189 191 192 194 194 212 227 253 277 297 311 319 321 321 320 322 324 325 326 327 325 324 323 324 324 322 321 320 318 314 307 307 306 307
185 188 191 188 188 189 192 191 189 188 192 195 197 213 223 241 263 283 304 313 317 318 319 324 326 326 328 328 326 325 326 327 327 327 325 324 325 323 320 320 318 319 317
192 193 192 191 193 196 194 192 190 193 196 196 208 216 229 251 272 290 306 315 316 319 324 326 327 328 328 328 329 330 330 330 330 330 328 327 327 326 327 326 323 325 327
198 199 196 196 199 198 197 196 197 201 200 204 208 217 238 260 276 296 310 315 317 323 325 328 331 330 332 335 335 336 334 337 334 332 332 332 331 335 331 324 321 324 328
207 206 205 204 203 202 200 199 200 205 205 210 214 228 249 265 285 302 310 313 319 325 329 331 333 336 340 343 343 342 344 345 339 336 334 333 338 336 341 333 331 326 322
221 213 212 212 210 206 203 201 202 204 210 213 221 236 252 271 290 303 310 315 323 329 332 336 342 347 351 352 353 357 359 353 346 341 338 339 342 345 348 346 336 341 334
247 230 222 219 217 214 209 205 203 206 211 215 224 236 252 272 294 305 311 321 328 335 341 346 353 358 1 3 6 4 4 1 359 356 350 352 356 353 350 341 337 336 344
258 255 242 230 223 217 211 206 202 206 209 216 223 235 252 276 296 308 317 327 333 342 351 359 4 7 13 10 12 6 6 9 6 6 3 2 355 350 345 341 346 352 347
237 240 239 231 229 222 213 205 205 206 210 214 221 235 254 283 301 314 325 331 342 356 6 12 14 22 24 19 17 9 12 16 12 10 7 1 355 351 358 358 359 356 353
216 213 212 216 220 216 208 203 203 206 207 210 219 230 261 289 306 317 329 340 354 14 22 26 34 33 29 27 24 18 18 13 12 12 10 7 4 1 0 4 7 5 4
172 184 191 192 194 197 197 196 198 200 201 206 213 237 269 291 310 323 338 358 18 31 40 47 47 45 41 38 32 28 26 20 17 17 14 9 7 10 11 15 15 13 15
154 163 175 180 177 179 187 191 192 194 196 199 216 245 268 292 310 332 358 27 42 47 55 56 51 45 39 36 34 31 26 21 20 19 16 12 11 15 18 19 16 15 17
165 164 167 167 165 174 180 190 186 187 190 202 221 241 256 288 316 344 48 59 55 63 63 59 51 40 34 30 29 26 23 23 22 17 18 20 23 23 20 18 18 19 19
167 166 168 167 168 170 173 178 184 186 192 201 220 225 238 262 246 105 86 77 76 72 65 59 49 42 35 28 21 17 16 16 15 10 11 14 16 18 19 19 19 19 18
173 170 174 176 174 174 178 179 182 189 195 205 209 214 215 198 177 145 115 100 94 81 65 60 51 45 39 26 20 17 13 9 11 7 22 25 24 23 20 18 19 20 21